Hlavní strana
METAR-TAF:

METAR-TAF

Letiště :

Greenville, Alabama, Spojené státy americké

zeměpisná šířka: 31-50-44N, zeměpisná délka: 086-36-38W, výška: 138 m

Aktuální stav počasí

Zpráva byla vytvořena před 1 hodinou a 4 minutami, v 01:56 UTC
Jižní vítr 5 kt
Teplota 17°C
Vlhkost vzduchu 88%
Tlak 1020 hPa
Viditelnost: 16.1 km
Zataženo ve výšce 300 ft

METAR: KPRN 190156Z AUTO 19005KT 10SM OVC003 17/15 A3012 RMK AO2 SLP198 T01720150

Čas: 21:00 (03:00 UTC)


TAF: chybějící

Stav a předpovědi počasí z více než 4 000 letišť (zprávy METAR a TAF).

Červené a žluté tečky na mapě představují dostupné meteorologické stanice.

Když kurzor umístíte na tečku, zobrazí se název stanice.

Pak kliknutím zobrazíte stav a předpověď počasí.

Chcete-li změnit mapu, kliknutím na zelené tlačítko se znaménkem +mapu přiblížíte, kliknutím na zelené tlačítko se znaménkem – mapu oddálíte a kliknutím na zelené šipky přejdete na sousední mapy.


METAR-TAF: